RYR6RW LGSK-LBSF

Flight info

Callsign RYR6RW
Flight time 0h 49m
Altitude 35000
Route TSL DCT EVIVI DCT VANET
Aircraft B738/M-SDE2E3FGHIRWXY/LB1

Departure

Time 2026-04-22 19:10
Airport Skiathos Island National Airport (LGSK)

Arrival

Time 2026-04-22 20:00
Airport Sofia Airport (LBSF)
Time Latitude Longitude Altitude Speed Heading
2026-04-22 19:03 39.17876 23.50215 65 ft 0 kts 330°
2026-04-22 19:05 39.17878 23.50214 65 ft 3 kts 335°
2026-04-22 19:06 39.17903 23.50246 62 ft 7 kts 86°
2026-04-22 19:06 39.17877 23.50294 62 ft 7 kts 164°
2026-04-22 19:06 39.17792 23.50264 61 ft 19 kts 198°
2026-04-22 19:07 39.17670 23.50241 55 ft 9 kts 191°
2026-04-22 19:07 39.17622 23.50219 55 ft 4 kts 196°
2026-04-22 19:07 39.17586 23.50215 57 ft 6 kts 167°
2026-04-22 19:07 39.17548 23.50266 55 ft 11 kts 140°
2026-04-22 19:08 39.17441 23.50245 50 ft 22 kts 199°
2026-04-22 19:08 39.17273 23.50172 38 ft 27 kts 198°
2026-04-22 19:08 39.17128 23.50107 31 ft 20 kts 199°
2026-04-22 19:08 39.17048 23.50049 25 ft 13 kts 218°
2026-04-22 19:09 39.17021 23.50063 23 ft 4 kts 71°
2026-04-22 19:09 39.17046 23.50071 24 ft 6 kts 11°
2026-04-22 19:09 39.17060 23.50077 24 ft 0 kts 19°
2026-04-22 19:10 39.17075 23.50084 25 ft 20 kts 19°
2026-04-22 19:10 39.17501 23.50273 49 ft 107 kts 19°
2026-04-22 19:10 39.18427 23.50689 245 ft 163 kts 20°
2026-04-22 19:10 39.19486 23.51152 1405 ft 156 kts 22°
2026-04-22 19:11 39.20548 23.51580 2346 ft 171 kts 20°
2026-04-22 19:11 39.21761 23.52088 2749 ft 200 kts 20°
2026-04-22 19:11 39.23170 23.52595 3235 ft 218 kts
2026-04-22 19:11 39.24763 23.52640 3576 ft 242 kts
2026-04-22 19:12 39.26458 23.52551 4152 ft 256 kts 358°
2026-04-22 19:12 39.28248 23.52439 5132 ft 258 kts 357°
2026-04-22 19:12 39.30081 23.52331 5933 ft 269 kts 356°
2026-04-22 19:12 39.31962 23.52231 6724 ft 279 kts 355°
2026-04-22 19:13 39.33920 23.52139 7728 ft 277 kts 355°
2026-04-22 19:13 39.35857 23.52058 8635 ft 282 kts 354°
2026-04-22 19:13 39.37834 23.51979 9532 ft 286 kts 353°
2026-04-22 19:13 39.39844 23.51904 10351 ft 293 kts 352°
2026-04-22 19:14 39.41961 23.51822 10652 ft 318 kts 352°
2026-04-22 19:14 39.44263 23.51732 10880 ft 343 kts 353°
2026-04-22 19:14 39.46695 23.51648 11451 ft 354 kts 353°
2026-04-22 19:14 39.49145 23.51573 12266 ft 357 kts 353°
2026-04-22 19:15 39.50826 23.51525 12875 ft 358 kts 353°
2026-04-22 19:15 39.54140 23.51430 13990 ft 362 kts 352°
2026-04-22 19:15 39.56676 23.51356 14725 ft 366 kts 352°
2026-04-22 19:15 39.59228 23.51280 15478 ft 368 kts 352°
2026-04-22 19:16 39.61800 23.51202 16229 ft 371 kts 351°
2026-04-22 19:16 39.64389 23.51124 16975 ft 374 kts 351°
2026-04-22 19:16 39.67004 23.51044 17714 ft 377 kts 351°
2026-04-22 19:16 39.69638 23.50963 18426 ft 380 kts 351°
2026-04-22 19:17 39.72291 23.50881 19065 ft 382 kts 351°
2026-04-22 19:17 39.74954 23.50801 19740 ft 383 kts 350°
2026-04-22 19:17 39.77624 23.50720 20405 ft 385 kts 350°
2026-04-22 19:17 39.80308 23.50637 21044 ft 387 kts 349°
2026-04-22 19:18 39.83009 23.50554 21675 ft 389 kts 349°
2026-04-22 19:18 39.85716 23.50470 22306 ft 390 kts 349°
2026-04-22 19:18 39.88402 23.50388 22917 ft 392 kts 349°
2026-04-22 19:18 39.91171 23.50302 23520 ft 394 kts 349°
2026-04-22 19:19 39.93923 23.50216 23988 ft 397 kts 348°
2026-04-22 19:19 39.96699 23.50129 24433 ft 400 kts 348°
2026-04-22 19:19 39.98540 23.50071 24738 ft 402 kts 348°
2026-04-22 19:19 40.02261 23.49956 25341 ft 405 kts 348°
2026-04-22 19:20 40.04164 23.49897 25640 ft 406 kts 348°
2026-04-22 19:20 40.07923 23.49780 26219 ft 409 kts 348°
2026-04-22 19:20 40.10776 23.49692 26663 ft 411 kts 348°
2026-04-22 19:20 40.13644 23.49603 27079 ft 413 kts 347°
2026-04-22 19:21 40.15555 23.49544 27348 ft 414 kts 347°
2026-04-22 19:21 40.18483 23.49453 27758 ft 417 kts 347°
2026-04-22 19:21 40.21348 23.49365 28245 ft 416 kts 347°
2026-04-22 19:21 40.24228 23.49281 28898 ft 412 kts 346°
2026-04-22 19:22 40.27072 23.49200 29590 ft 407 kts 346°
2026-04-22 19:22 40.29888 23.49117 30186 ft 403 kts 346°
2026-04-22 19:22 40.32691 23.49031 30633 ft 402 kts 345°
2026-04-22 19:22 40.35486 23.48942 31010 ft 402 kts 345°
2026-04-22 19:23 40.38301 23.48847 31030 ft 406 kts 345°
2026-04-22 19:23 40.43932 23.48667 31067 ft 404 kts 345°
2026-04-22 19:24 40.49554 23.48491 31059 ft 404 kts 345°
2026-04-22 19:24 40.55173 23.48314 31056 ft 404 kts 345°
2026-04-22 19:25 40.60806 23.48136 31056 ft 405 kts 345°
2026-04-22 19:25 40.66441 23.47957 31054 ft 406 kts 345°
2026-04-22 19:26 40.72102 23.47777 31058 ft 407 kts 345°
2026-04-22 19:26 40.77784 23.47596 31049 ft 410 kts 346°
2026-04-22 19:27 40.83461 23.47415 31045 ft 411 kts 346°
2026-04-22 19:27 40.89200 23.47233 31045 ft 413 kts 346°
2026-04-22 19:28 40.94960 23.47051 31048 ft 415 kts 346°
2026-04-22 19:28 41.00739 23.46867 31045 ft 416 kts 347°
2026-04-22 19:29 41.06545 23.46682 31047 ft 418 kts 347°
2026-04-22 19:29 41.12362 23.46496 31051 ft 419 kts 347°
2026-04-22 19:30 41.17219 23.46340 31046 ft 421 kts 348°
2026-04-22 19:30 41.24074 23.46120 31048 ft 423 kts 348°
2026-04-22 19:31 41.29962 23.45932 31042 ft 424 kts 348°
2026-04-22 19:31 41.35863 23.45744 31048 ft 423 kts 348°
2026-04-22 19:31 41.38800 23.45650 30920 ft 422 kts 348°
2026-04-22 19:32 41.41727 23.45549 30664 ft 418 kts 348°
2026-04-22 19:32 41.44614 23.45419 30420 ft 413 kts 348°
2026-04-22 19:32 41.47483 23.45271 30182 ft 411 kts 348°
2026-04-22 19:32 41.50305 23.45117 29914 ft 411 kts 348°
2026-04-22 19:33 41.53160 23.44961 29638 ft 410 kts 348°
2026-04-22 19:33 41.56014 23.44809 29357 ft 410 kts 348°
2026-04-22 19:33 41.58862 23.44659 29076 ft 410 kts 348°
2026-04-22 19:33 41.61716 23.44510 28806 ft 410 kts 348°
2026-04-22 19:34 41.64561 23.44364 28530 ft 409 kts 348°
2026-04-22 19:34 41.67399 23.44220 28067 ft 406 kts 348°
2026-04-22 19:34 41.70207 23.44078 27611 ft 402 kts 348°
2026-04-22 19:34 41.72989 23.43937 27142 ft 400 kts 348°
2026-04-22 19:35 41.75759 23.43797 26654 ft 396 kts 348°
2026-04-22 19:35 41.78496 23.43659 26228 ft 392 kts 348°
2026-04-22 19:35 41.81209 23.43519 25773 ft 389 kts 348°
2026-04-22 19:35 41.83903 23.43379 25340 ft 386 kts 348°
2026-04-22 19:36 41.86577 23.43240 24909 ft 384 kts 348°
2026-04-22 19:36 41.89246 23.43100 24454 ft 383 kts 348°
2026-04-22 19:36 41.91901 23.42960 23992 ft 382 kts 348°
2026-04-22 19:36 41.94552 23.42822 23538 ft 380 kts 349°
2026-04-22 19:37 41.97186 23.42685 23044 ft 378 kts 349°
2026-04-22 19:37 41.99805 23.42549 22560 ft 375 kts 350°
2026-04-22 19:37 42.02394 23.42417 22164 ft 370 kts 350°
2026-04-22 19:37 42.04820 23.42294 21734 ft 368 kts 351°
2026-04-22 19:38 42.07366 23.42160 21313 ft 366 kts 351°
2026-04-22 19:38 42.09903 23.42024 20876 ft 364 kts 352°
2026-04-22 19:38 42.12423 23.41892 20461 ft 361 kts 352°
2026-04-22 19:38 42.14922 23.41762 20035 ft 358 kts 352°
2026-04-22 19:39 42.17404 23.41633 19628 ft 356 kts 353°
2026-04-22 19:39 42.19876 23.41503 19223 ft 354 kts 353°
2026-04-22 19:39 42.22330 23.41375 18812 ft 352 kts 354°
2026-04-22 19:39 42.24773 23.41248 18400 ft 350 kts 354°
2026-04-22 19:40 42.27204 23.41121 17954 ft 348 kts 354°
2026-04-22 19:40 42.29604 23.41089 17499 ft 342 kts
2026-04-22 19:40 42.31898 23.41812 17017 ft 336 kts 14°
2026-04-22 19:40 42.34065 23.42742 16601 ft 327 kts 15°
2026-04-22 19:41 42.36207 23.43671 16213 ft 318 kts 15°
2026-04-22 19:41 42.38288 23.44553 15838 ft 310 kts 14°
2026-04-22 19:41 42.40326 23.45396 15473 ft 302 kts 14°
2026-04-22 19:41 42.42313 23.46208 15125 ft 295 kts 14°
2026-04-22 19:42 42.44277 23.47008 14784 ft 287 kts 14°
2026-04-22 19:42 42.46147 23.47768 14460 ft 281 kts 14°
2026-04-22 19:42 42.48001 23.48520 14121 ft 275 kts 14°
2026-04-22 19:42 42.49818 23.49256 13790 ft 269 kts 14°
2026-04-22 19:43 42.53238 23.50646 13497 ft 243 kts 14°
2026-04-22 19:43 42.54833 23.51295 13403 ft 237 kts 14°
2026-04-22 19:43 42.56417 23.51938 13328 ft 238 kts 14°
2026-04-22 19:44 42.58013 23.52586 13234 ft 241 kts 14°
2026-04-22 19:44 42.59491 23.53663 13103 ft 247 kts 44°
2026-04-22 19:44 42.60324 23.55681 13014 ft 251 kts 79°
2026-04-22 19:44 42.60344 23.58046 12944 ft 251 kts 94°
2026-04-22 19:45 42.60181 23.60419 12819 ft 254 kts 95°
2026-04-22 19:45 42.60014 23.62809 12705 ft 254 kts 94°
2026-04-22 19:45 42.59834 23.65190 12542 ft 254 kts 101°
2026-04-22 19:45 42.59121 23.67355 12282 ft 251 kts 131°
2026-04-22 19:46 42.57762 23.68743 12159 ft 242 kts 161°
2026-04-22 19:46 42.56145 23.69027 12096 ft 232 kts 191°
2026-04-22 19:46 42.54671 23.68245 12060 ft 230 kts 219°
2026-04-22 19:46 42.53612 23.66631 12063 ft 232 kts 244°
2026-04-22 19:47 42.53139 23.64553 12039 ft 231 kts 268°
2026-04-22 19:47 42.53166 23.62395 12061 ft 229 kts 275°
2026-04-22 19:47 42.53292 23.60244 12044 ft 229 kts 276°
2026-04-22 19:47 42.53419 23.58089 12046 ft 229 kts 275°
2026-04-22 19:48 42.53538 23.55934 12042 ft 229 kts 275°
2026-04-22 19:48 42.53735 23.53806 12035 ft 227 kts 290°
2026-04-22 19:48 42.54538 23.52034 12060 ft 225 kts 315°
2026-04-22 19:48 42.55843 23.50894 12050 ft 225 kts 341°
2026-04-22 19:49 42.57397 23.50660 12036 ft 228 kts
2026-04-22 19:49 42.58875 23.51434 12060 ft 232 kts 34°
2026-04-22 19:49 42.59937 23.53089 12045 ft 238 kts 62°
2026-04-22 19:49 42.60354 23.55268 12050 ft 242 kts 88°
2026-04-22 19:50 42.60271 23.57567 12063 ft 245 kts 93°
2026-04-22 19:50 42.60140 23.59887 12060 ft 247 kts 93°
2026-04-22 19:50 42.60010 23.62221 12059 ft 249 kts 93°
2026-04-22 19:50 42.59884 23.64566 12046 ft 250 kts 93°
2026-04-22 19:51 42.59743 23.66921 11904 ft 253 kts 94°
2026-04-22 19:51 42.59592 23.69309 11639 ft 254 kts 94°
2026-04-22 19:51 42.59442 23.71687 11382 ft 253 kts 93°
2026-04-22 19:51 42.59293 23.74058 11131 ft 252 kts 93°
2026-04-22 19:52 42.59144 23.76424 10872 ft 251 kts 93°
2026-04-22 19:52 42.58998 23.78745 10634 ft 250 kts 93°
2026-04-22 19:52 42.58846 23.81129 10385 ft 250 kts 93°
2026-04-22 19:52 42.58716 23.83473 10154 ft 247 kts 86°
2026-04-22 19:53 42.59221 23.85563 9917 ft 231 kts 50°
2026-04-22 19:53 42.60502 23.86881 9237 ft 237 kts 19°
2026-04-22 19:53 42.62115 23.87245 8721 ft 237 kts 354°
2026-04-22 19:53 42.63648 23.86590 8308 ft 235 kts 328°
2026-04-22 19:54 42.64814 23.85064 7910 ft 235 kts 304°
2026-04-22 19:54 42.65568 23.83077 7533 ft 238 kts 296°
2026-04-22 19:54 42.66227 23.81032 7211 ft 234 kts 296°
2026-04-22 19:54 42.66872 23.79016 6918 ft 228 kts 297°
2026-04-22 19:55 42.67398 23.76999 6626 ft 225 kts 287°
2026-04-22 19:55 42.67666 23.74944 6365 ft 218 kts 281°
2026-04-22 19:55 42.67818 23.72901 6059 ft 216 kts 278°
2026-04-22 19:55 42.67938 23.70870 5763 ft 215 kts 277°
2026-04-22 19:56 42.68053 23.68847 5452 ft 214 kts 277°
2026-04-22 19:56 42.68168 23.66838 5175 ft 213 kts 277°
2026-04-22 19:56 42.68282 23.64844 4895 ft 210 kts 276°
2026-04-22 19:56 42.68396 23.62887 4601 ft 205 kts 276°
2026-04-22 19:57 42.68507 23.60976 4318 ft 200 kts 276°
2026-04-22 19:57 42.68615 23.59127 4043 ft 194 kts 276°
2026-04-22 19:57 42.68720 23.57332 3769 ft 186 kts 276°
2026-04-22 19:57 42.68820 23.55624 3521 ft 179 kts 276°
2026-04-22 19:58 42.68919 23.53946 3253 ft 177 kts 275°
2026-04-22 19:58 42.69016 23.52297 3013 ft 170 kts 275°
2026-04-22 19:58 42.69107 23.50761 2798 ft 155 kts 275°
2026-04-22 19:58 42.69193 23.49308 2562 ft 153 kts 276°
2026-04-22 19:59 42.69278 23.47885 2362 ft 150 kts 276°
2026-04-22 20:00 42.69608 23.41642 1745 ft 12 kts 251°
2026-04-22 20:00 42.69576 23.41535 1746 ft 12 kts 244°
2026-04-22 20:01 42.69540 23.41433 1746 ft 12 kts 245°
2026-04-22 20:01 42.69505 23.41333 1745 ft 12 kts 246°
2026-04-22 20:01 42.69474 23.41235 1743 ft 11 kts 230°
2026-04-22 20:01 42.69404 23.41198 1749 ft 11 kts 192°
2026-04-22 20:02 42.69331 23.41177 1745 ft 11 kts 192°
2026-04-22 20:02 42.69260 23.41155 1749 ft 10 kts 192°
2026-04-22 20:02 42.69191 23.41135 1749 ft 10 kts 192°
2026-04-22 20:02 42.69156 23.41121 1749 ft 3 kts 205°
2026-04-22 20:03 42.69137 23.41103 1731 ft 3 kts 220°
2026-04-22 20:03 42.69124 23.41073 1750 ft 4 kts 250°
2026-04-22 20:03 42.69112 23.41051 1749 ft 2 kts 204°
2026-04-22 20:03 42.69078 23.41061 1744 ft 10 kts 163°
2026-04-22 20:04 42.69036 23.41079 1745 ft 1 kts 162°
2026-04-22 20:04 42.69031 23.41081 1746 ft 0 kts 162°